| time (UTC) | temp F | wind direction | speed MPH | gust MPH | rain 1hr in | rain 24hr in | rain mn in | humidity % | barometer mb |
| 20260904065024 | 53 | 0 | 0.0 | 1.0 | 0.00 | 0.00 | 0.00 | 92 | 1010.8 |
| 20260904064552 | 53 | 0 | 0.0 | 2.0 | 0.00 | 0.00 | 0.00 | 92 | 1010.8 |
| 20260904064026 | 53 | 29 | 1.0 | 2.0 | 0.00 | 0.00 | 0.00 | 92 | 1010.8 |
| 20260904063526 | 53 | 352 | 1.0 | 2.0 | 0.00 | 0.00 | 0.00 | 92 | 1010.8 |
| 20260904063049 | 53 | 287 | 1.0 | 2.0 | 0.00 | 0.00 | 0.00 | 91 | 1010.8 |
| 20260904062528 | 53 | 291 | 1.0 | 1.0 | 0.00 | 0.00 | 0.00 | 91 | 1010.8 |
| 20260904062026 | 53 | 283 | 1.0 | 1.0 | 0.00 | 0.00 | 0.00 | 91 | 1010.9 |
| 20260904061549 | 53 | 282 | 1.0 | 1.0 | 0.00 | 0.00 | 0.00 | 91 | 1010.9 |
| 20260904061026 | 53 | 292 | 1.0 | 1.0 | 0.00 | 0.00 | 0.00 | 92 | 1010.9 |
| 20260904060526 | 53 | 292 | 1.0 | 1.0 | 0.00 | 0.00 | 0.00 | 91 | 1010.9 |
| 20260904060047 | 53 | 292 | 1.0 | 1.0 | 0.00 | 0.00 | 0.00 | 91 | 1010.9 |
| 20260904055525 | 53 | 298 | 1.0 | 1.0 | 0.00 | 0.00 | 0.00 | 91 | 1010.9 |
| 20260904055025 | 53 | 333 | 0.0 | 1.0 | 0.00 | 0.00 | 0.00 | 91 | 1010.9 |
| 20260904054549 | 52 | 0 | 0.0 | 1.0 | 0.00 | 0.00 | 0.00 | 90 | 1010.8 |
| 20260904054025 | 53 | 0 | 0.0 | 1.0 | 0.00 | 0.00 | 0.00 | 90 | 1010.8 |
| 20260904053524 | 53 | 1 | 1.0 | 1.0 | 0.00 | 0.00 | 0.00 | 90 | 1010.7 |
| 20260904053103 | 53 | 0 | 0.0 | 2.0 | 0.00 | 0.00 | 0.00 | 90 | 1010.7 |
| 20260904052525 | 53 | 0 | 0.0 | 2.0 | 0.00 | 0.00 | 0.00 | 90 | 1010.7 |
| 20260904052026 | 53 | 311 | 1.0 | 2.0 | 0.00 | 0.00 | 0.00 | 90 | 1010.6 |
| 20260904051549 | 53 | 304 | 1.0 | 2.0 | 0.00 | 0.00 | 0.00 | 89 | 1010.5 |
| 20260904051024 | 53 | 304 | 0.0 | 2.0 | 0.00 | 0.00 | 0.00 | 89 | 1010.4 |
| 20260904050525 | 54 | 304 | 1.0 | 2.0 | 0.00 | 0.00 | 0.00 | 89 | 1010.6 |
| 20260904050048 | 54 | 304 | 1.0 | 2.0 | 0.00 | 0.00 | 0.00 | 89 | 1010.4 |
| 20260904045524 | 54 | 305 | 1.0 | 2.0 | 0.00 | 0.00 | 0.00 | 89 | 1010.4 |
| 20260904045023 | 54 | 310 | 1.0 | 2.0 | 0.00 | 0.00 | 0.00 | 88 | 1010.4 |
| 20260904044550 | 54 | 310 | 1.0 | 1.0 | 0.00 | 0.00 | 0.00 | 88 | 1010.4 |
| 20260904044024 | 54 | 309 | 0.0 | 2.0 | 0.00 | 0.00 | 0.00 | 88 | 1010.4 |
| 20260904043526 | 54 | 309 | 1.0 | 2.0 | 0.00 | 0.00 | 0.00 | 87 | 1010.5 |
| 20260904043052 | 54 | 306 | 0.0 | 1.0 | 0.00 | 0.00 | 0.00 | 87 | 1010.4 |
| 20260904042525 | 55 | 0 | 0.0 | 1.0 | 0.00 | 0.00 | 0.00 | 87 | 1010.4 |
| 20260904042026 | 55 | 307 | 0.0 | 1.0 | 0.00 | 0.00 | 0.00 | 87 | 1010.5 |
| 20260904041551 | 55 | 0 | 0.0 | 0.0 | 0.00 | 0.00 | 0.00 | 86 | 1010.5 |
| 20260904041024 | 55 | 0 | 0.0 | 1.0 | 0.00 | 0.00 | 0.00 | 85 | 1010.3 |
| 20260904040524 | 55 | 0 | 0.0 | 1.0 | 0.00 | 0.00 | 0.00 | 85 | 1010.5 |
| 20260904040050 | 55 | 307 | 0.0 | 1.0 | 0.00 | 0.00 | 0.00 | 85 | 1010.4 |
| 20260904035526 | 56 | 307 | 0.0 | 1.0 | 0.00 | 0.00 | 0.00 | 84 | 1010.3 |
| 20260904035028 | 56 | 307 | 0.0 | 2.0 | 0.00 | 0.00 | 0.00 | 85 | 1010.4 |
| 20260904034546 | 56 | 295 | 1.0 | 2.0 | 0.00 | 0.00 | 0.00 | 84 | 1010.4 |
| 20260904034025 | 57 | 293 | 1.0 | 2.0 | 0.00 | 0.00 | 0.00 | 83 | 1010.4 |
| 20260904033524 | 57 | 287 | 2.0 | 3.0 | 0.00 | 0.00 | 0.00 | 82 | 1010.3 |
| 20260904033053 | 57 | 290 | 2.0 | 3.0 | 0.00 | 0.00 | 0.00 | 81 | 1010.4 |
| 20260904032526 | 58 | 290 | 1.0 | 2.0 | 0.00 | 0.00 | 0.00 | 80 | 1010.3 |
| 20260904032024 | 58 | 291 | 1.0 | 2.0 | 0.00 | 0.00 | 0.00 | 79 | 1010.2 |
| 20260904031549 | 59 | 293 | 1.0 | 2.0 | 0.00 | 0.00 | 0.00 | 78 | 1010.2 |
| 20260904031025 | 59 | 293 | 1.0 | 3.0 | 0.00 | 0.00 | 0.00 | 77 | 1010.3 |
| 20260904030525 | 60 | 287 | 1.0 | 3.0 | 0.00 | 0.00 | 0.00 | 77 | 1010.1 |
| 20260904030049 | 60 | 295 | 2.0 | 3.0 | 0.00 | 0.00 | 0.00 | 76 | 1010.3 |
| 20260904025559 | 60 | 286 | 2.0 | 3.0 | 0.00 | 0.00 | 0.00 | 76 | 1010.1 |
| 20260904025025 | 60 | 298 | 2.0 | 4.0 | 0.00 | 0.00 | 0.00 | 75 | 1010.1 |
| 20260904024544 | 61 | 302 | 2.0 | 4.0 | 0.00 | 0.00 | 0.00 | 74 | 1010.1 |
| 20260904024024 | 61 | 286 | 3.0 | 5.0 | 0.00 | 0.00 | 0.00 | 73 | 1010.1 |
| 20260904023530 | 61 | 296 | 3.0 | 5.0 | 0.00 | 0.00 | 0.00 | 72 | 1010.1 |
| 20260904023051 | 62 | 305 | 2.0 | 4.0 | 0.00 | 0.00 | 0.00 | 71 | 1010.0 |
| 20260904022525 | 62 | 298 | 1.0 | 2.0 | 0.00 | 0.00 | 0.00 | 70 | 1010.0 |
| 20260904022030 | 63 | 288 | 1.0 | 4.0 | 0.00 | 0.00 | 0.00 | 69 | 1010.1 |
| 20260904021553 | 63 | 302 | 2.0 | 6.0 | 0.00 | 0.00 | 0.00 | 68 | 1010.0 |
| 20260904021027 | 64 | 295 | 3.0 | 6.0 | 0.00 | 0.00 | 0.00 | 68 | 1010.0 |
| 20260904020528 | 65 | 299 | 4.0 | 6.0 | 0.00 | 0.00 | 0.00 | 65 | 1009.8 |
| 20260904020050 | 66 | 278 | 1.0 | 2.0 | 0.00 | 0.00 | 0.00 | 60 | 1009.8 |
| 20260904015525 | 67 | 305 | 0.0 | 4.0 | 0.00 | 0.00 | 0.00 | 61 | 1009.8 |
| 20260904015029 | 67 | 223 | 0.0 | 4.0 | 0.00 | 0.00 | 0.00 | 59 | 1009.6 |
| 20260904014557 | 68 | 193 | 1.0 | 3.0 | 0.00 | 0.00 | 0.00 | 57 | 1009.6 |
| 20260904014024 | 69 | 155 | 2.0 | 3.0 | 0.00 | 0.00 | 0.00 | 56 | 1009.6 |
| 20260904013524 | 69 | 0 | 0.0 | 2.0 | 0.00 | 0.00 | 0.00 | 58 | 1009.6 |
| 20260904013053 | 69 | 0 | 0.0 | 3.0 | 0.00 | 0.00 | 0.00 | 60 | 1009.5 |
| 20260904012526 | 69 | 214 | 1.0 | 3.0 | 0.00 | 0.00 | 0.00 | 56 | 1009.6 |
| 20260904012026 | 70 | 291 | 1.0 | 4.0 | 0.00 | 0.00 | 0.00 | 56 | 1009.6 |
| 20260904011554 | 69 | 215 | 1.0 | 4.0 | 0.00 | 0.00 | 0.00 | 57 | 1009.6 |
| 20260904011026 | 69 | 110 | 2.0 | 4.0 | 0.00 | 0.00 | 0.00 | 57 | 1009.5 |
| 20260904010526 | 69 | 133 | 0.0 | 3.0 | 0.00 | 0.00 | 0.00 | 57 | 1009.6 |
| 20260904010044 | 70 | 256 | 0.0 | 3.0 | 0.00 | 0.00 | 0.00 | 57 | 1009.6 |
| 20260904005525 | 69 | 183 | 0.0 | 5.0 | 0.00 | 0.02 | 0.00 | 57 | 1009.5 |
| 20260904005025 | 70 | 256 | 0.0 | 5.0 | 0.00 | 0.02 | 0.00 | 57 | 1009.6 |
| 20260904004551 | 70 | 0 | 0.0 | 3.0 | 0.00 | 0.02 | 0.00 | 58 | 1009.5 |
| 20260904004029 | 69 | 134 | 0.0 | 3.0 | 0.00 | 0.02 | 0.00 | 58 | 1009.5 |
| 20260904003525 | 69 | 353 | 1.0 | 4.0 | 0.00 | 0.02 | 0.00 | 59 | 1009.5 |
| 20260904003048 | 69 | 284 | 1.0 | 4.0 | 0.00 | 0.02 | 0.00 | 58 | 1009.5 |
| 20260904002525 | 69 | 255 | 0.0 | 4.0 | 0.00 | 0.02 | 0.00 | 59 | 1009.6 |
| 20260904002026 | 69 | 0 | 1.0 | 4.0 | 0.00 | 0.02 | 0.00 | 58 | 1009.7 |
| 20260904001546 | 69 | 139 | 1.0 | 4.0 | 0.00 | 0.02 | 0.00 | 59 | 1009.7 |
| 20260904001026 | 69 | 241 | 2.0 | 4.0 | 0.00 | 0.02 | 0.00 | 57 | 1009.7 |
| 20260904000527 | 69 | 170 | 1.0 | 4.0 | 0.00 | 0.02 | 0.00 | 57 | 1009.6 |
| 20260904000047 | 69 | 200 | 1.0 | 4.0 | 0.00 | 0.02 | 0.00 | 59 | 1009.7 |
| 20260903235527 | 69 | 248 | 2.0 | 5.0 | 0.00 | 0.03 | 0.00 | 58 | 1009.8 |
| 20260903235029 | 69 | 308 | 2.0 | 6.0 | 0.00 | 0.03 | 0.00 | 58 | 1009.7 |
| 20260903234550 | 69 | 240 | 0.0 | 6.0 | 0.00 | 0.03 | 0.00 | 59 | 1009.8 |
| 20260903234026 | 69 | 254 | 2.0 | 5.0 | 0.00 | 0.03 | 0.00 | 59 | 1009.6 |
| 20260903233525 | 68 | 165 | 2.0 | 6.0 | 0.00 | 0.03 | 0.00 | 59 | 1009.8 |
| 20260903233052 | 69 | 300 | 2.0 | 7.0 | 0.00 | 0.03 | 0.00 | 60 | 1009.7 |
| 20260903232525 | 68 | 276 | 2.0 | 7.0 | 0.00 | 0.03 | 0.00 | 60 | 1009.6 |
| 20260903232026 | 68 | 253 | 2.0 | 5.0 | 0.00 | 0.03 | 0.00 | 60 | 1009.7 |
| 20260903231549 | 69 | 34 | 2.0 | 5.0 | 0.00 | 0.03 | 0.00 | 60 | 1009.7 |
| 20260903231025 | 68 | 235 | 1.0 | 5.0 | 0.00 | 0.03 | 0.00 | 61 | 1009.7 |
| 20260903230524 | 69 | 148 | 2.0 | 6.0 | 0.00 | 0.03 | 0.00 | 60 | 1009.8 |
| 20260903230048 | 69 | 148 | 2.0 | 7.0 | 0.00 | 0.03 | 0.00 | 61 | 1009.7 |
| 20260903225529 | 68 | 120 | 1.0 | 7.0 | 0.00 | 0.03 | 0.00 | 61 | 1009.8 |
| 20260903225027 | 68 | 79 | 2.0 | 6.0 | 0.00 | 0.03 | 0.00 | 61 | 1009.9 |
| 20260903224543 | 69 | 261 | 2.0 | 5.0 | 0.00 | 0.03 | 0.00 | 61 | 1009.9 |
| 20260903224026 | 69 | 108 | 1.0 | 5.0 | 0.00 | 0.03 | 0.00 | 62 | 1009.9 |
| 20260903223526 | 68 | 86 | 1.0 | 6.0 | 0.00 | 0.03 | 0.00 | 61 | 1009.8 |
| 20260903223055 | 68 | 233 | 2.0 | 6.0 | 0.00 | 0.03 | 0.00 | 61 | 1009.9 |
| 20260903222524 | 68 | 250 | 2.0 | 5.0 | 0.00 | 0.03 | 0.00 | 62 | 1010.0 |
| 20260903222025 | 68 | 117 | 1.0 | 5.0 | 0.00 | 0.03 | 0.00 | 62 | 1010.0 |
| 20260903221547 | 68 | 179 | 0.0 | 5.0 | 0.00 | 0.03 | 0.00 | 63 | 1010.0 |
| 20260903221025 | 68 | 184 | 1.0 | 4.0 | 0.00 | 0.03 | 0.00 | 62 | 1010.1 |
| 20260903220524 | 68 | 0 | 0.0 | 2.0 | 0.00 | 0.03 | 0.00 | 62 | 1010.2 |
| 20260903215525 | 68 | 112 | 1.0 | 4.0 | 0.00 | 0.03 | 0.00 | 61 | 1010.2 |
| 20260903215027 | 68 | 300 | 1.0 | 4.0 | 0.00 | 0.03 | 0.00 | 61 | 1010.2 |
| 20260903214543 | 68 | 153 | 1.0 | 6.0 | 0.00 | 0.03 | 0.00 | 62 | 1010.2 |
| 20260903214025 | 68 | 193 | 2.0 | 6.0 | 0.00 | 0.03 | 0.00 | 61 | 1010.2 |
| 20260903213525 | 68 | 119 | 2.0 | 6.0 | 0.00 | 0.03 | 0.00 | 62 | 1010.2 |
| 20260903213049 | 69 | 210 | 3.0 | 6.0 | 0.00 | 0.03 | 0.00 | 60 | 1010.3 |
| 20260903212527 | 69 | 168 | 2.0 | 5.0 | 0.00 | 0.03 | 0.00 | 62 | 1010.2 |
| 20260903212026 | 69 | 197 | 2.0 | 6.0 | 0.00 | 0.03 | 0.00 | 61 | 1010.2 |
| 20260903211548 | 68 | 225 | 3.0 | 7.0 | 0.00 | 0.03 | 0.00 | 62 | 1010.2 |
| 20260903211025 | 68 | 228 | 3.0 | 7.0 | 0.00 | 0.03 | 0.00 | 62 | 1010.2 |
| 20260903210526 | 68 | 174 | 3.0 | 7.0 | 0.00 | 0.03 | 0.00 | 64 | 1010.2 |
| 20260903210052 | 67 | 255 | 2.0 | 6.0 | 0.00 | 0.03 | 0.00 | 68 | 1010.2 |
| 20260903205526 | 66 | 229 | 2.0 | 6.0 | 0.00 | 0.03 | 0.00 | 69 | 1010.1 |
| 20260903205025 | 65 | 167 | 3.0 | 6.0 | 0.00 | 0.03 | 0.00 | 66 | 1010.1 |
| 20260903204550 | 66 | 127 | 3.0 | 6.0 | 0.00 | 0.03 | 0.00 | 65 | 1010.1 |
| 20260903204024 | 66 | 141 | 2.0 | 7.0 | 0.00 | 0.03 | 0.00 | 67 | 1010.1 |
| 20260903203527 | 66 | 207 | 2.0 | 7.0 | 0.00 | 0.03 | 0.00 | 68 | 1010.1 |
| 20260903203050 | 66 | 148 | 3.0 | 7.0 | 0.00 | 0.03 | 0.00 | 67 | 1010.1 |
| 20260903202524 | 65 | 139 | 2.0 | 7.0 | 0.00 | 0.03 | 0.00 | 69 | 1010.1 |
| 20260903202026 | 64 | 169 | 1.0 | 7.0 | 0.00 | 0.03 | 0.00 | 72 | 1010.1 |
| 20260903201547 | 64 | 123 | 4.0 | 7.0 | 0.00 | 0.03 | 0.00 | 69 | 1010.1 |
| 20260903201024 | 63 | 136 | 4.0 | 7.0 | 0.00 | 0.03 | 0.00 | 71 | 1010.2 |
| 20260903200525 | 63 | 142 | 4.0 | 8.0 | 0.00 | 0.03 | 0.00 | 69 | 1010.1 |
| 20260903200047 | 63 | 139 | 4.0 | 8.0 | 0.00 | 0.03 | 0.00 | 69 | 1010.2 |
| 20260903195527 | 63 | 130 | 5.0 | 8.0 | 0.00 | 0.03 | 0.00 | 70 | 1010.1 |
| 20260903195026 | 63 | 192 | 5.0 | 8.0 | 0.00 | 0.03 | 0.00 | 69 | 1010.1 |
| 20260903194548 | 63 | 155 | 6.0 | 8.0 | 0.00 | 0.03 | 0.00 | 69 | 1010.2 |
| 20260903194030 | 63 | 137 | 3.0 | 7.0 | 0.00 | 0.03 | 0.00 | 71 | 1010.1 |
| 20260903193525 | 63 | 91 | 4.0 | 7.0 | 0.00 | 0.03 | 0.00 | 69 | 1010.0 |
| 20260903193055 | 63 | 146 | 4.0 | 9.0 | 0.00 | 0.03 | 0.00 | 69 | 1010.1 |
| 20260903192526 | 63 | 98 | 6.0 | 9.0 | 0.00 | 0.03 | 0.00 | 68 | 1010.0 |
| 20260903192025 | 63 | 110 | 5.0 | 8.0 | 0.00 | 0.03 | 0.00 | 69 | 1010.0 |
| 20260903191545 | 63 | 118 | 4.0 | 7.0 | 0.00 | 0.03 | 0.00 | 71 | 1009.9 |
| 20260903191025 | 63 | 115 | 2.0 | 4.0 | 0.00 | 0.03 | 0.00 | 71 | 1009.9 |
| 20260903190527 | 63 | 101 | 2.0 | 4.0 | 0.00 | 0.03 | 0.00 | 70 | 1009.9 |
| 20260903190050 | 63 | 98 | 2.0 | 7.0 | 0.00 | 0.03 | 0.00 | 72 | 1009.8 |
| 20260903185529 | 63 | 52 | 2.0 | 7.0 | 0.00 | 0.03 | 0.00 | 70 | 1009.9 |
| 20260903185026 | 63 | 92 | 5.0 | 9.0 | 0.00 | 0.03 | 0.00 | 70 | 1009.8 |
| 20260903184548 | 64 | 136 | 5.0 | 9.0 | 0.00 | 0.03 | 0.00 | 70 | 1009.8 |
| 20260903184028 | 64 | 122 | 3.0 | 7.0 | 0.00 | 0.03 | 0.00 | 71 | 1009.8 |
| 20260903183526 | 64 | 141 | 4.0 | 7.0 | 0.00 | 0.03 | 0.00 | 71 | 1009.8 |
| 20260903183048 | 63 | 124 | 4.0 | 10.0 | 0.00 | 0.03 | 0.00 | 72 | 1009.7 |
| 20260903182526 | 62 | 141 | 6.0 | 10.0 | 0.00 | 0.03 | 0.00 | 70 | 1009.8 |
| 20260903182028 | 62 | 135 | 7.0 | 10.0 | 0.00 | 0.03 | 0.00 | 71 | 1009.8 |
| 20260903181547 | 62 | 145 | 7.0 | 10.0 | 0.00 | 0.03 | 0.00 | 72 | 1009.8 |
| 20260903181028 | 62 | 186 | 8.0 | 10.0 | 0.00 | 0.03 | 0.00 | 73 | 1009.8 |
| 20260903180525 | 62 | 105 | 3.0 | 8.0 | 0.00 | 0.03 | 0.00 | 74 | 1009.6 |
| 20260903180044 | 62 | 75 | 5.0 | 8.0 | 0.00 | 0.03 | 0.00 | 73 | 1009.7 |
| 20260903175526 | 61 | 125 | 3.0 | 8.0 | 0.00 | 0.03 | 0.00 | 76 | 1009.6 |
| 20260903175025 | 61 | 86 | 5.0 | 8.0 | 0.00 | 0.03 | 0.00 | 76 | 1009.5 |
| 20260903174550 | 61 | 72 | 4.0 | 7.0 | 0.00 | 0.03 | 0.00 | 76 | 1009.6 |
| 20260903174025 | 61 | 134 | 4.0 | 7.0 | 0.00 | 0.03 | 0.00 | 76 | 1009.4 |
| 20260903173527 | 61 | 66 | 4.0 | 7.0 | 0.00 | 0.03 | 0.00 | 76 | 1009.4 |
| 20260903173050 | 61 | 96 | 4.0 | 9.0 | 0.00 | 0.03 | 0.00 | 76 | 1009.4 |
| 20260903172529 | 61 | 54 | 6.0 | 9.0 | 0.00 | 0.03 | 0.00 | 77 | 1009.4 |
| 20260903172029 | 60 | 45 | 6.0 | 12.0 | 0.00 | 0.03 | 0.00 | 77 | 1009.4 |
| 20260903171548 | 60 | 93 | 6.0 | 12.0 | 0.00 | 0.03 | 0.00 | 78 | 1009.3 |
| 20260903171027 | 60 | 96 | 6.0 | 12.0 | 0.00 | 0.03 | 0.00 | 77 | 1009.3 |
| 20260903170527 | 60 | 120 | 4.0 | 10.0 | 0.00 | 0.03 | 0.00 | 78 | 1009.3 |
| 20260903170045 | 60 | 82 | 5.0 | 8.0 | 0.00 | 0.03 | 0.00 | 78 | 1009.3 |
| 20260903165527 | 60 | 105 | 4.0 | 8.0 | 0.00 | 0.03 | 0.00 | 78 | 1009.2 |
| 20260903165028 | 60 | 115 | 5.0 | 10.0 | 0.00 | 0.03 | 0.00 | 79 | 1009.2 |
| 20260903164552 | 60 | 81 | 4.0 | 10.0 | 0.00 | 0.03 | 0.00 | 79 | 1009.2 |
| 20260903164026 | 60 | 98 | 5.0 | 9.0 | 0.00 | 0.03 | 0.00 | 79 | 1009.1 |
| 20260903163526 | 59 | 81 | 5.0 | 7.0 | 0.00 | 0.03 | 0.00 | 80 | 1009.1 |
| 20260903163049 | 59 | 124 | 4.0 | 8.0 | 0.00 | 0.03 | 0.00 | 80 | 1009.1 |
| 20260903162524 | 59 | 104 | 5.0 | 8.0 | 0.00 | 0.03 | 0.00 | 80 | 1009.1 |
| 20260903162025 | 59 | 63 | 4.0 | 7.0 | 0.00 | 0.03 | 0.00 | 80 | 1009.0 |
| 20260903161549 | 59 | 115 | 4.0 | 7.0 | 0.00 | 0.03 | 0.00 | 81 | 1009.2 |
| 20260903161026 | 59 | 70 | 3.0 | 7.0 | 0.00 | 0.03 | 0.00 | 81 | 1009.1 |
| 20260903160525 | 58 | 110 | 3.0 | 6.0 | 0.00 | 0.03 | 0.00 | 82 | 1009.0 |
| 20260903160048 | 58 | 101 | 3.0 | 6.0 | 0.00 | 0.03 | 0.00 | 82 | 1008.9 |
| 20260903155526 | 58 | 73 | 4.0 | 6.0 | 0.00 | 0.03 | 0.00 | 83 | 1009.0 |
| 20260903155026 | 57 | 101 | 3.0 | 6.0 | 0.00 | 0.03 | 0.00 | 84 | 1008.9 |
| 20260903154552 | 57 | 81 | 4.0 | 6.0 | 0.00 | 0.03 | 0.00 | 84 | 1008.9 |
| 20260903154023 | 57 | 108 | 4.0 | 6.0 | 0.00 | 0.03 | 0.00 | 84 | 1008.9 |
| 20260903153530 | 57 | 113 | 3.0 | 6.0 | 0.00 | 0.03 | 0.00 | 84 | 1008.8 |
| 20260903153049 | 57 | 62 | 5.0 | 7.0 | 0.00 | 0.03 | 0.00 | 84 | 1008.8 |
| 20260903152525 | 57 | 71 | 4.0 | 7.0 | 0.00 | 0.03 | 0.00 | 84 | 1008.8 |
| 20260903152027 | 57 | 94 | 3.0 | 6.0 | 0.00 | 0.03 | 0.00 | 83 | 1008.9 |
| 20260903151554 | 57 | 91 | 2.0 | 4.0 | 0.00 | 0.03 | 0.00 | 83 | 1008.8 |
| 20260903151024 | 57 | 131 | 2.0 | 4.0 | 0.00 | 0.03 | 0.00 | 83 | 1008.8 |
| 20260903150526 | 57 | 124 | 2.0 | 4.0 | 0.00 | 0.03 | 0.00 | 83 | 1008.6 |
| 20260903150059 | 57 | 67 | 2.0 | 4.0 | 0.00 | 0.03 | 0.00 | 83 | 1008.7 |
| 20260903145527 | 57 | 65 | 2.0 | 5.0 | 0.00 | 0.03 | 0.00 | 84 | 1008.8 |
| 20260903145026 | 57 | 135 | 3.0 | 6.0 | 0.00 | 0.03 | 0.00 | 84 | 1008.7 |
| 20260903144549 | 57 | 72 | 4.0 | 6.0 | 0.00 | 0.03 | 0.00 | 84 | 1008.7 |
| 20260903144025 | 56 | 74 | 2.0 | 5.0 | 0.00 | 0.03 | 0.00 | 85 | 1008.7 |
| 20260903143528 | 56 | 73 | 3.0 | 6.0 | 0.00 | 0.03 | 0.00 | 84 | 1008.7 |
| 20260903143055 | 56 | 131 | 4.0 | 6.0 | 0.00 | 0.03 | 0.00 | 85 | 1008.7 |
| 20260903142526 | 56 | 91 | 3.0 | 6.0 | 0.00 | 0.03 | 0.00 | 85 | 1008.7 |
| 20260903142026 | 56 | 107 | 2.0 | 6.0 | 0.00 | 0.03 | 0.00 | 84 | 1008.6 |
| 20260903141548 | 56 | 69 | 2.0 | 5.0 | 0.00 | 0.03 | 0.00 | 85 | 1008.5 |
| 20260903141024 | 56 | 67 | 2.0 | 4.0 | 0.00 | 0.03 | 0.00 | 84 | 1008.4 |
| 20260903140525 | 57 | 105 | 2.0 | 4.0 | 0.00 | 0.03 | 0.00 | 84 | 1008.4 |
| 20260903140057 | 57 | 105 | 2.0 | 5.0 | 0.00 | 0.03 | 0.00 | 84 | 1008.3 |
| 20260903135526 | 57 | 77 | 4.0 | 5.0 | 0.00 | 0.03 | 0.00 | 84 | 1008.3 |
| 20260903135026 | 57 | 80 | 2.0 | 4.0 | 0.00 | 0.03 | 0.00 | 83 | 1008.2 |
| 20260903134555 | 57 | 93 | 2.0 | 4.0 | 0.00 | 0.03 | 0.00 | 83 | 1008.2 |
| 20260903134024 | 57 | 107 | 2.0 | 5.0 | 0.00 | 0.03 | 0.00 | 82 | 1008.2 |
| 20260903133530 | 57 | 89 | 3.0 | 5.0 | 0.00 | 0.03 | 0.00 | 82 | 1008.1 |
| 20260903133048 | 57 | 66 | 3.0 | 6.0 | 0.00 | 0.03 | 0.00 | 82 | 1008.0 |
| 20260903132526 | 57 | 127 | 3.0 | 6.0 | 0.00 | 0.03 | 0.00 | 81 | 1007.9 |
| 20260903132024 | 58 | 91 | 3.0 | 7.0 | 0.00 | 0.03 | 0.00 | 81 | 1007.9 |
| 20260903131552 | 58 | 81 | 3.0 | 7.0 | 0.00 | 0.03 | 0.00 | 81 | 1007.9 |
| 20260903131025 | 58 | 69 | 3.0 | 6.0 | 0.00 | 0.03 | 0.00 | 80 | 1007.8 |
| 20260903130529 | 58 | 51 | 4.0 | 8.0 | 0.00 | 0.03 | 0.00 | 80 | 1007.7 |
| 20260903130051 | 58 | 70 | 4.0 | 9.0 | 0.00 | 0.03 | 0.00 | 80 | 1007.6 |
| 20260903125527 | 58 | 65 | 5.0 | 9.0 | 0.00 | 0.03 | 0.00 | 79 | 1007.6 |
| 20260903125026 | 58 | 101 | 4.0 | 11.0 | 0.00 | 0.03 | 0.00 | 80 | 1007.7 |
| 20260903124549 | 58 | 85 | 5.0 | 11.0 | 0.00 | 0.03 | 0.00 | 79 | 1007.5 |
| 20260903124025 | 58 | 91 | 4.0 | 9.0 | 0.00 | 0.03 | 0.00 | 79 | 1007.5 |
| 20260903123527 | 58 | 84 | 4.0 | 8.0 | 0.00 | 0.03 | 0.00 | 79 | 1007.5 |
| 20260903123046 | 58 | 79 | 4.0 | 7.0 | 0.00 | 0.03 | 0.00 | 79 | 1007.5 |
| 20260903122527 | 58 | 84 | 4.0 | 7.0 | 0.00 | 0.03 | 0.00 | 78 | 1007.5 |
| 20260903122028 | 58 | 103 | 3.0 | 9.0 | 0.00 | 0.03 | 0.00 | 78 | 1007.5 |
| 20260903121546 | 58 | 92 | 5.0 | 9.0 | 0.00 | 0.03 | 0.00 | 78 | 1007.5 |
| 20260903121027 | 58 | 77 | 3.0 | 7.0 | 0.00 | 0.03 | 0.00 | 77 | 1007.5 |
| 20260903120526 | 58 | 106 | 5.0 | 7.0 | 0.00 | 0.03 | 0.00 | 77 | 1007.4 |
| 20260903120055 | 58 | 96 | 5.0 | 7.0 | 0.00 | 0.03 | 0.00 | 77 | 1007.4 |
| 20260903115526 | 58 | 126 | 3.0 | 5.0 | 0.00 | 0.03 | 0.00 | 77 | 1007.3 |
| 20260903115028 | 58 | 115 | 3.0 | 7.0 | 0.00 | 0.03 | 0.00 | 77 | 1007.2 |
| 20260903114548 | 58 | 71 | 3.0 | 7.0 | 0.00 | 0.03 | 0.00 | 76 | 1007.2 |
| 20260903114024 | 59 | 97 | 4.0 | 7.0 | 0.00 | 0.03 | 0.00 | 76 | 1007.2 |
| 20260903113525 | 59 | 82 | 4.0 | 10.0 | 0.00 | 0.03 | 0.00 | 76 | 1007.2 |
| 20260903113048 | 59 | 82 | 4.0 | 10.0 | 0.00 | 0.03 | 0.00 | 76 | 1007.1 |
| 20260903112528 | 58 | 85 | 4.0 | 10.0 | 0.00 | 0.03 | 0.00 | 76 | 1007.1 |
| 20260903112025 | 59 | 112 | 3.0 | 8.0 | 0.00 | 0.03 | 0.00 | 76 | 1007.1 |
| 20260903111546 | 59 | 82 | 4.0 | 9.0 | 0.00 | 0.03 | 0.00 | 76 | 1007.1 |
| 20260903111027 | 59 | 112 | 5.0 | 9.0 | 0.00 | 0.03 | 0.00 | 76 | 1007.0 |
| 20260903110526 | 59 | 100 | 4.0 | 8.0 | 0.00 | 0.03 | 0.00 | 77 | 1007.0 |
| 20260903110048 | 59 | 119 | 4.0 | 8.0 | 0.00 | 0.03 | 0.00 | 76 | 1007.0 |
| 20260903105522 | 59 | 100 | 4.0 | 8.0 | 0.00 | 0.03 | 0.00 | 76 | 1007.0 |
| 20260903105026 | 59 | 88 | 2.0 | 7.0 | 0.00 | 0.03 | 0.00 | 76 | 1007.1 |
| 20260903104557 | 59 | 74 | 4.0 | 7.0 | 0.00 | 0.03 | 0.00 | 77 | 1007.0 |
| 20260903104026 | 59 | 115 | 4.0 | 7.0 | 0.00 | 0.03 | 0.00 | 77 | 1006.9 |
| 20260903103525 | 59 | 99 | 3.0 | 6.0 | 0.00 | 0.03 | 0.00 | 77 | 1007.0 |
| 20260903103049 | 59 | 53 | 2.0 | 5.0 | 0.00 | 0.03 | 0.00 | 78 | 1007.0 |
| 20260903102526 | 59 | 77 | 3.0 | 5.0 | 0.00 | 0.03 | 0.00 | 77 | 1006.9 |
| 20260903102023 | 59 | 70 | 2.0 | 4.0 | 0.00 | 0.03 | 0.00 | 77 | 1006.9 |
| 20260903101544 | 59 | 96 | 2.0 | 7.0 | 0.00 | 0.03 | 0.00 | 77 | 1006.9 |
| 20260903101025 | 59 | 88 | 4.0 | 7.0 | 0.00 | 0.03 | 0.00 | 77 | 1006.8 |
| 20260903100527 | 59 | 70 | 2.0 | 12.0 | 0.00 | 0.03 | 0.00 | 77 | 1006.8 |
| 20260903100048 | 60 | 91 | 6.0 | 12.0 | 0.00 | 0.03 | 0.00 | 77 | 1006.9 |
| 20260903095528 | 59 | 131 | 4.0 | 8.0 | 0.00 | 0.03 | 0.00 | 78 | 1006.8 |
| 20260903095024 | 59 | 98 | 5.0 | 8.0 | 0.00 | 0.03 | 0.00 | 78 | 1006.7 |
| 20260903094558 | 59 | 105 | 4.0 | 7.0 | 0.00 | 0.03 | 0.00 | 78 | 1006.7 |
| 20260903094025 | 59 | 77 | 4.0 | 8.0 | 0.00 | 0.03 | 0.00 | 77 | 1006.7 |
| 20260903093526 | 60 | 113 | 4.0 | 8.0 | 0.00 | 0.03 | 0.00 | 77 | 1006.6 |
| 20260903093055 | 60 | 136 | 4.0 | 8.0 | 0.00 | 0.03 | 0.00 | 77 | 1006.6 |
| 20260903092529 | 60 | 93 | 4.0 | 8.0 | 0.00 | 0.03 | 0.00 | 77 | 1006.5 |
| 20260903092027 | 60 | 143 | 5.0 | 12.0 | 0.00 | 0.03 | 0.00 | 78 | 1006.5 |
| 20260903091553 | 60 | 101 | 6.0 | 13.0 | 0.00 | 0.03 | 0.00 | 77 | 1006.5 |
| 20260903091025 | 60 | 91 | 6.0 | 13.0 | 0.00 | 0.03 | 0.00 | 78 | 1006.5 |
| 20260903090524 | 60 | 88 | 7.0 | 14.0 | 0.00 | 0.03 | 0.00 | 78 | 1006.6 |
| 20260903090049 | 60 | 124 | 8.0 | 16.0 | 0.00 | 0.03 | 0.00 | 78 | 1006.6 |
| 20260903085526 | 60 | 120 | 7.0 | 16.0 | 0.00 | 0.03 | 0.00 | 78 | 1006.6 |
| 20260903085025 | 60 | 110 | 8.0 | 16.0 | 0.00 | 0.03 | 0.00 | 78 | 1006.6 |
| 20260903084546 | 60 | 143 | 6.0 | 15.0 | 0.00 | 0.03 | 0.00 | 79 | 1006.6 |
| 20260903084025 | 60 | 135 | 10.0 | 18.0 | 0.00 | 0.03 | 0.00 | 78 | 1006.6 |
| 20260903083526 | 60 | 139 | 10.0 | 18.0 | 0.00 | 0.03 | 0.00 | 79 | 1006.6 |
| 20260903083046 | 60 | 146 | 9.0 | 15.0 | 0.00 | 0.03 | 0.00 | 79 | 1006.6 |
| 20260903082528 | 60 | 128 | 9.0 | 19.0 | 0.00 | 0.03 | 0.00 | 79 | 1006.5 |
| 20260903082029 | 60 | 139 | 10.0 | 19.0 | 0.00 | 0.03 | 0.00 | 79 | 1006.5 |
| 20260903081553 | 60 | 133 | 7.0 | 14.0 | 0.00 | 0.03 | 0.00 | 80 | 1006.6 |
| 20260903081024 | 60 | 102 | 8.0 | 14.0 | 0.00 | 0.03 | 0.00 | 79 | 1006.6 |
| 20260903080525 | 60 | 136 | 10.0 | 15.0 | 0.00 | 0.03 | 0.00 | 80 | 1006.6 |
| 20260903080047 | 60 | 151 | 6.0 | 15.0 | 0.00 | 0.03 | 0.00 | 81 | 1006.5 |
| 20260903075528 | 60 | 115 | 9.0 | 15.0 | 0.00 | 0.03 | 0.00 | 80 | 1006.5 |
| 20260903075024 | 60 | 123 | 6.0 | 15.0 | 0.00 | 0.03 | 0.00 | 81 | 1006.5 |
| 20260903074556 | 60 | 144 | 8.0 | 16.0 | 0.00 | 0.03 | 0.00 | 80 | 1006.4 |
| 20260903074024 | 60 | 143 | 9.0 | 22.0 | 0.00 | 0.03 | 0.00 | 80 | 1006.4 |
| 20260903073526 | 60 | 118 | 11.0 | 22.0 | 0.00 | 0.03 | 0.00 | 81 | 1006.5 |
| 20260903073059 | 60 | 168 | 9.0 | 18.0 | 0.00 | 0.03 | 0.00 | 81 | 1006.4 |
| 20260903072524 | 60 | 140 | 10.0 | 18.0 | 0.00 | 0.03 | 0.00 | 81 | 1006.4 |
| 20260903072025 | 60 | 169 | 7.0 | 16.0 | 0.00 | 0.03 | 0.00 | 82 | 1006.4 |
| 20260903071548 | 60 | 131 | 8.0 | 16.0 | 0.00 | 0.03 | 0.00 | 82 | 1006.2 |
| 20260903071024 | 60 | 146 | 8.0 | 16.0 | 0.00 | 0.03 | 0.00 | 82 | 1006.2 |
| 20260903070525 | 60 | 110 | 9.0 | 18.0 | 0.00 | 0.03 | 0.00 | 82 | 1006.1 |
| 20260903070048 | 60 | 139 | 8.0 | 18.0 | 0.00 | 0.03 | 0.00 | 83 | 1006.0 |
| 20260903065525 | 60 | 102 | 9.0 | 15.0 | 0.00 | 0.03 | 0.03 | 83 | 1006.2 |